Aérodrome :
LOGIN :

S'inscrire | Disclaimer

   EN    FR    IT 

 










Légende :    VFR   VFR Marginal   IFR   IFR Intensif   IFR Très Intensif
Visi : 
Plafond : 
>= 8 km
>= 3000ft
5 à 8 km
1000 à 3000 ft
1500m à 5 km
500 à 1000 ft
800 à 1500m
200 à 500 ft
< 800m
< 200 ft
Symboles :   Orages  Brouillard  Fortes neiges  Fortes précipitations  Vent > 20 kt
SIGMETs :   Divers  Orages  Givrage  Turbulence  Onde Orograph.  Cendres Volcan.







- Altitude de l'aérodrome : 287 ft
- Voir les cartes d'approche


LFRL - Lanveoc Poulmic

DERNIER METAR :
  • 270130Z AUTO 32006KT 9999 FEW009 OVC018 15/12 Q1010

METARs EXPIRÉS :
  • 270100Z AUTO 33004KT 9999 OVC018 15/12 Q1010
  • 270030Z AUTO 35004KT 330V040 9999 OVC018 15/13 Q1010
  • 270000Z AUTO 35004KT 9999 FEW006 OVC019 14/12 Q1011
  • 262330Z AUTO 34006KT 320V020 9999 FEW008 OVC019 15/13 Q1011
  • 262300Z AUTO 34006KT 9999 BKN018 15/12 Q1011

Prévision TAF périmée.
Pas de NOTAMs connus pour ce terrain.



MET'MAP, la Météo Aéronautique d'un coup d'oeil ! - Copyright ORBIFLY Décembre 2007 - Disclaimer

ORBIFLY MET'MAP TEAM :

Programmation & Développement : Alexandra Zaïnal
Conception & Développement : Baudouin d'Aumeries
Co-Programmation & Développement : Marc-Olivier Méhu
Soutien technique & logistique : Manuel Goepfert

Contact : metmap@orbifly.com




SOURCES & CREDITS :

   NOAA